Hourly Data Report for July 08, 2021

BORDEN AWOS
ONTARIO
Current Station Operator: DND

44°16'20.000" N
79°54'42.000" W
222.50 m
611B002
71534
YBN

Download Data

Hourly Data (July 2021)
Hourly Data Report for July 8, 2021
TIME
LST
Temp Definition
°C
Dew Point Definition
°C
Rel Hum Definition
%
Precip. Amount Definition
mm

Wind Dir Definition
10's deg

Wind Spd Definition
km/h
Visibility Definition
km
Stn Press Definition
kPa
Hmdx Definition


Wind Chill Definition


Weather Definition


00:00 13.5 11.5 88   9 11 14.5 98.84     LegendNANA
01:00 13.4 11.7 89   12 13 14.5 98.82     LegendNANA
02:00 13.3 12.2 93   14 11 14.5 98.80     LegendNANA
03:00 13.4 12.6 95   14 7 14.5 98.78     LegendNANA
04:00 13.4 12.4 94   14 7 14.5 98.74     Rain
05:00 13.3 12.0 92   11 4 14.5 98.76     LegendNANA
06:00 13.4 12.1 92   10 7 14.5 98.72     LegendNANA
07:00 13.5 12.1 91   11 7 14.5 98.71     LegendNANA
08:00 14.0 12.3 90   14 9 14.5 98.67     LegendNANA
09:00 13.6 13.1 97   10 11 14.5 98.59     Rain
10:00 13.0 13.0 100   4 4 1.3 98.70     Heavy Rain
11:00 13.7 13.7 100   10 7 14.5 98.63     Rain
12:00 15.4 14.7 96   12 9 14.5 98.58     Rain
13:00 15.5 15.0 97   13 7 14.5 98.55     Rain
14:00 16.1 15.3 95   14 9 14.5 98.48     LegendNANA
15:00 16.9 15.9 94   17 6 14.5 98.45     LegendNANA
16:00 17.5 16.2 92   18 6 14.5 98.47     LegendNANA
17:00 18.2 16.8 92   10 11 14.5 98.40     LegendNANA
18:00 18.4 16.8 90   14 7 14.5 98.39     LegendNANA
19:00 18.2 16.9 92   12 9 14.5 98.39     LegendNANA
20:00
21:00 17.6 17.3 98   12 7 11.3 98.45     LegendNANA
22:00 17.7 17.4 98   12 4 8.0 98.43     LegendNANA
23:00                      

Notes on Data Quality.

Legend

  • E = Estimated
  • M = Missing
  • NA = Not Available*
  • [empty] = Indicates an unobserved value
Date modified: